Time,TemperatureF,DewpointF,PressureIn,WindDirection,WindDirectionDegrees,WindSpeedMPH,WindSpeedGustMPH,Humidity,HourlyPrecipIn,Conditions,Clouds,dailyrainin,SoftwareType,DateUTC
2013-02-08 00:10:00,32.0,23.0,30.32,NNW,333,0.0,3.0,70,0.00,,,0.00,weatherlink.com 1.10,2013-02-08 05:10:00,
2013-02-08 00:25:00,32.7,25.0,30.31,West,274,2.0,2.0,72,0.00,,,0.00,weatherlink.com 1.10,2013-02-08 05:25:00,
2013-02-08 00:40:00,33.0,25.0,30.31,North,8,1.0,2.0,72,0.00,,,0.00,weatherlink.com 1.10,2013-02-08 05:40:00,
2013-02-08 00:55:00,33.1,25.0,30.30,NW,304,0.0,1.0,73,0.00,,,0.00,weatherlink.com 1.10,2013-02-08 05:55:00,
2013-02-08 01:10:00,33.3,26.0,30.29,WSW,248,1.0,2.0,73,0.00,,,0.00,weatherlink.com 1.10,2013-02-08 06:10:00,
2013-02-08 01:25:00,33.3,26.0,30.29,WSW,248,0.0,2.0,74,0.00,,,0.00,weatherlink.com 1.10,2013-02-08 06:25:00,
2013-02-08 01:40:00,33.4,26.0,30.28,West,264,1.0,4.0,74,0.00,,,0.00,weatherlink.com 1.10,2013-02-08 06:40:00,
2013-02-08 01:55:00,33.3,26.0,30.27,WSW,243,0.0,4.0,74,0.00,,,0.00,weatherlink.com 1.10,2013-02-08 06:55:00,
2013-02-08 02:10:00,33.3,26.0,30.26,WSW,251,1.0,3.0,75,0.00,,,0.00,weatherlink.com 1.10,2013-02-08 07:10:00,
2013-02-08 02:25:00,33.3,26.0,30.26,WSW,258,0.0,4.0,75,0.00,,,0.00,weatherlink.com 1.10,2013-02-08 07:25:00,
2013-02-08 02:40:00,33.3,26.0,30.25,SW,218,0.0,4.0,75,0.00,,,0.00,weatherlink.com 1.10,2013-02-08 07:40:00,
2013-02-08 02:55:00,33.2,26.0,30.24,West,264,0.0,4.0,75,0.00,,,0.00,weatherlink.com 1.10,2013-02-08 07:55:00,
2013-02-08 03:10:00,33.3,26.0,30.23,West,266,1.0,2.0,75,0.00,,,0.00,weatherlink.com 1.10,2013-02-08 08:10:00,
2013-02-08 03:26:00,33.3,26.0,30.22,NW,307,2.0,3.0,75,0.00,,,0.00,weatherlink.com 1.10,2013-02-08 08:26:00,
2013-02-08 03:41:00,33.2,26.0,30.21,WNW,293,1.0,5.0,75,0.00,,,0.00,weatherlink.com 1.10,2013-02-08 08:41:00,
2013-02-08 03:56:00,33.0,26.0,30.20,NW,317,1.0,3.0,75,0.00,,,0.00,weatherlink.com 1.10,2013-02-08 08:56:00,
2013-02-08 04:11:00,32.8,26.0,30.20,SW,224,2.0,5.0,75,0.00,,,0.00,weatherlink.com 1.10,2013-02-08 09:11:00,
2013-02-08 04:26:00,32.7,26.0,30.20,NNW,333,0.0,6.0,75,0.00,,,0.00,weatherlink.com 1.10,2013-02-08 09:26:00,
2013-02-08 04:41:00,32.5,26.0,30.19,NW,304,1.0,4.0,76,0.00,,,0.00,weatherlink.com 1.10,2013-02-08 09:41:00,
2013-02-08 04:56:00,32.5,26.0,30.19,WSW,258,1.0,4.0,76,0.00,,,0.00,weatherlink.com 1.10,2013-02-08 09:56:00,
2013-02-08 05:11:00,32.7,26.0,30.18,NW,316,1.0,5.0,77,0.00,,,0.00,weatherlink.com 1.10,2013-02-08 10:11:00,
2013-02-08 05:26:00,32.9,27.0,30.18,NNW,348,2.0,5.0,78,0.00,,,0.00,weatherlink.com 1.10,2013-02-08 10:26:00,
2013-02-08 05:41:00,33.2,27.0,30.16,North,11,2.0,5.0,79,0.00,,,0.00,weatherlink.com 1.10,2013-02-08 10:41:00,
2013-02-08 05:56:00,32.8,28.0,30.16,WSW,249,0.0,7.0,81,0.00,,,0.00,weatherlink.com 1.10,2013-02-08 10:56:00,
2013-02-08 06:11:00,32.6,28.0,30.15,WNW,296,1.0,7.0,82,0.00,,,0.00,weatherlink.com 1.10,2013-02-08 11:11:00,
2013-02-08 06:26:00,32.4,28.0,30.14,WSW,255,1.0,6.0,83,0.00,,,0.00,weatherlink.com 1.10,2013-02-08 11:26:00,
2013-02-08 06:41:00,32.1,28.0,30.13,West,278,3.0,7.0,86,0.00,,,0.00,weatherlink.com 1.10,2013-02-08 11:41:00,
2013-02-08 06:56:00,32.0,29.0,30.12,WNW,299,1.0,5.0,87,0.00,,,0.00,weatherlink.com 1.10,2013-02-08 11:56:00,
2013-02-08 07:11:00,31.9,29.0,30.12,NW,309,1.0,6.0,88,0.00,,,0.00,weatherlink.com 1.10,2013-02-08 12:11:00,
2013-02-08 07:26:00,32.0,29.0,30.12,West,270,2.0,6.0,89,0.00,,,0.00,weatherlink.com 1.10,2013-02-08 12:26:00,
2013-02-08 07:41:00,31.9,29.0,30.12,WNW,288,2.0,4.0,90,0.00,,,0.00,weatherlink.com 1.10,2013-02-08 12:41:00,
2013-02-08 07:56:00,32.0,30.0,30.11,NNW,338,0.0,4.0,91,0.00,,,0.00,weatherlink.com 1.10,2013-02-08 12:56:00,
2013-02-08 08:11:00,32.1,30.0,30.10,NNW,342,1.0,4.0,92,0.00,,,0.00,weatherlink.com 1.10,2013-02-08 13:11:00,
2013-02-08 08:26:00,32.3,30.0,30.10,WSW,250,0.0,5.0,92,0.00,,,0.00,weatherlink.com 1.10,2013-02-08 13:26:00,
2013-02-08 08:41:00,32.6,31.0,30.09,WNW,298,2.0,6.0,92,0.00,,,0.00,weatherlink.com 1.10,2013-02-08 13:41:00,
2013-02-08 08:56:00,32.9,31.0,30.08,WNW,288,1.0,6.0,93,0.00,,,0.00,weatherlink.com 1.10,2013-02-08 13:56:00,
2013-02-08 09:11:00,33.1,31.0,30.07,NW,325,4.0,6.0,93,0.00,,,0.00,weatherlink.com 1.10,2013-02-08 14:11:00,
2013-02-08 09:26:00,33.2,31.0,30.05,WNW,301,1.0,6.0,93,0.00,,,0.00,weatherlink.com 1.10,2013-02-08 14:26:00,
2013-02-08 09:41:00,33.3,32.0,30.04,NW,316,3.0,6.0,93,0.00,,,0.00,weatherlink.com 1.10,2013-02-08 14:41:00,
2013-02-08 09:56:00,33.5,32.0,30.03,WNW,294,0.0,7.0,93,0.00,,,0.00,weatherlink.com 1.10,2013-02-08 14:56:00,
2013-02-08 10:11:00,33.6,32.0,30.02,NW,304,2.0,8.0,93,0.01,,,0.01,weatherlink.com 1.10,2013-02-08 15:11:00,
2013-02-08 10:26:00,33.8,32.0,30.00,West,263,6.0,10.0,93,0.02,,,0.02,weatherlink.com 1.10,2013-02-08 15:26:00,
2013-02-08 10:42:00,33.9,32.0,29.99,NNW,331,3.0,8.0,92,0.03,,,0.03,weatherlink.com 1.10,2013-02-08 15:42:00,
2013-02-08 10:57:00,33.9,32.0,29.98,NNW,340,5.0,7.0,92,0.03,,,0.03,weatherlink.com 1.10,2013-02-08 15:57:00,
2013-02-08 11:12:00,33.9,32.0,29.97,WNW,293,5.0,9.0,92,0.03,,,0.04,weatherlink.com 1.10,2013-02-08 16:12:00,
2013-02-08 11:27:00,33.9,32.0,29.95,SW,232,4.0,10.0,92,0.03,,,0.05,weatherlink.com 1.10,2013-02-08 16:27:00,
2013-02-08 11:42:00,33.7,32.0,29.93,NNW,345,10.0,12.0,92,0.03,,,0.06,weatherlink.com 1.10,2013-02-08 16:42:00,
2013-02-08 11:57:00,33.6,31.0,29.92,WSW,245,1.0,9.0,91,0.03,,,0.06,weatherlink.com 1.10,2013-02-08 16:57:00,
2013-02-08 12:12:00,33.4,31.0,29.91,NW,308,4.0,13.0,91,0.03,,,0.07,weatherlink.com 1.10,2013-02-08 17:12:00,
2013-02-08 12:27:00,33.2,31.0,29.89,WNW,294,4.0,9.0,92,0.02,,,0.07,weatherlink.com 1.10,2013-02-08 17:27:00,
2013-02-08 12:42:00,33.0,31.0,29.87,WSW,249,4.0,9.0,92,0.01,,,0.07,weatherlink.com 1.10,2013-02-08 17:42:00,
2013-02-08 12:57:00,33.0,31.0,29.85,NNW,330,9.0,9.0,92,0.02,,,0.08,weatherlink.com 1.10,2013-02-08 17:57:00,
2013-02-08 13:12:00,32.9,31.0,29.84,NNE,25,5.0,9.0,92,0.01,,,0.08,weatherlink.com 1.10,2013-02-08 18:12:00,
2013-02-08 13:27:00,33.0,31.0,29.83,NW,310,5.0,9.0,92,0.02,,,0.09,weatherlink.com 1.10,2013-02-08 18:27:00,
2013-02-08 13:42:00,33.1,31.0,29.81,WNW,290,3.0,11.0,91,0.03,,,0.10,weatherlink.com 1.10,2013-02-08 18:42:00,
2013-02-08 13:57:00,33.1,31.0,29.79,WNW,290,2.0,10.0,91,0.02,,,0.10,weatherlink.com 1.10,2013-02-08 18:57:00,
2013-02-08 14:12:00,32.9,31.0,29.78,SW,218,5.0,8.0,92,0.02,,,0.10,weatherlink.com 1.10,2013-02-08 19:12:00,
2013-02-08 14:27:00,32.7,31.0,29.76,NW,305,1.0,10.0,92,0.01,,,0.10,weatherlink.com 1.10,2013-02-08 19:27:00,
2013-02-08 14:42:00,32.7,31.0,29.75,NNE,26,1.0,8.0,93,0.00,,,0.10,weatherlink.com 1.10,2013-02-08 19:42:00,
2013-02-08 14:57:00,32.5,31.0,29.74,NNE,27,2.0,7.0,93,0.00,,,0.10,weatherlink.com 1.10,2013-02-08 19:57:00,
2013-02-08 15:12:00,32.5,31.0,29.74,North,352,4.0,7.0,94,0.00,,,0.10,weatherlink.com 1.10,2013-02-08 20:12:00,
2013-02-08 15:27:00,32.4,31.0,29.73,WNW,298,3.0,7.0,94,0.00,,,0.10,weatherlink.com 1.10,2013-02-08 20:27:00,
2013-02-08 15:42:00,32.3,31.0,29.72,NNE,13,3.0,6.0,94,0.00,,,0.10,weatherlink.com 1.10,2013-02-08 20:42:00,
2013-02-08 15:57:00,32.0,31.0,29.72,NW,325,2.0,6.0,94,0.00,,,0.10,weatherlink.com 1.10,2013-02-08 20:57:00,
2013-02-08 16:12:00,31.9,30.0,29.72,NNW,345,4.0,6.0,94,0.00,,,0.10,weatherlink.com 1.10,2013-02-08 21:12:00,
2013-02-08 16:27:00,31.9,30.0,29.71,NNE,12,4.0,5.0,94,0.00,,,0.10,weatherlink.com 1.10,2013-02-08 21:27:00,
2013-02-08 16:42:00,31.8,30.0,29.70,NNE,23,2.0,6.0,94,0.00,,,0.10,weatherlink.com 1.10,2013-02-08 21:42:00,
2013-02-08 16:58:00,31.7,30.0,29.69,North,358,6.0,9.0,94,0.00,,,0.10,weatherlink.com 1.10,2013-02-08 21:58:00,
2013-02-08 17:13:00,31.6,30.0,29.68,NNW,335,3.0,5.0,95,0.00,,,0.10,weatherlink.com 1.10,2013-02-08 22:13:00,
2013-02-08 17:28:00,31.6,30.0,29.68,NNE,33,3.0,6.0,95,0.00,,,0.10,weatherlink.com 1.10,2013-02-08 22:28:00,
2013-02-08 17:43:00,31.6,30.0,29.67,NNW,328,4.0,8.0,95,0.00,,,0.10,weatherlink.com 1.10,2013-02-08 22:43:00,
2013-02-08 17:58:00,31.5,30.0,29.67,NNE,33,3.0,7.0,95,0.00,,,0.10,weatherlink.com 1.10,2013-02-08 22:58:00,
2013-02-08 18:13:00,31.5,30.0,29.66,NNE,13,5.0,6.0,94,0.00,,,0.10,weatherlink.com 1.10,2013-02-08 23:13:00,
2013-02-08 18:28:00,31.5,30.0,29.66,NNW,340,5.0,6.0,94,0.00,,,0.10,weatherlink.com 1.10,2013-02-08 23:28:00,
2013-02-08 18:43:00,31.5,30.0,29.66,North,356,2.0,7.0,93,0.00,,,0.10,weatherlink.com 1.10,2013-02-08 23:43:00,
2013-02-08 18:58:00,31.4,29.0,29.65,NW,319,3.0,7.0,92,0.00,,,0.10,weatherlink.com 1.10,2013-02-08 23:58:00,
2013-02-08 19:13:00,31.2,29.0,29.65,North,358,3.0,8.0,92,0.00,,,0.10,weatherlink.com 1.10,2013-02-09 00:13:00,
2013-02-08 19:28:00,31.0,29.0,29.65,NW,321,2.0,5.0,92,0.00,,,0.10,weatherlink.com 1.10,2013-02-09 00:28:00,
2013-02-08 19:43:00,30.8,29.0,29.65,ENE,63,3.0,7.0,92,0.00,,,0.10,weatherlink.com 1.10,2013-02-09 00:43:00,
2013-02-08 19:58:00,30.5,29.0,29.64,NNW,336,2.0,8.0,92,0.00,,,0.10,weatherlink.com 1.10,2013-02-09 00:58:00,
2013-02-08 20:13:00,30.2,28.0,29.64,NNW,342,1.0,12.0,92,0.00,,,0.10,weatherlink.com 1.10,2013-02-09 01:13:00,
2013-02-08 20:28:00,30.1,28.0,29.64,NE,42,3.0,7.0,92,0.00,,,0.10,weatherlink.com 1.10,2013-02-09 01:28:00,
2013-02-08 20:43:00,30.1,28.0,29.64,NNW,343,3.0,7.0,92,0.00,,,0.10,weatherlink.com 1.10,2013-02-09 01:43:00,
2013-02-08 20:58:00,30.0,28.0,29.64,NW,310,2.0,7.0,92,0.00,,,0.10,weatherlink.com 1.10,2013-02-09 01:58:00,
2013-02-08 21:13:00,30.0,28.0,29.66,NNW,335,2.0,6.0,93,0.00,,,0.10,weatherlink.com 1.10,2013-02-09 02:13:00,
2013-02-08 21:28:00,29.9,28.0,29.67,ENE,65,2.0,5.0,93,0.00,,,0.10,weatherlink.com 1.10,2013-02-09 02:28:00,
2013-02-08 21:43:00,30.0,28.0,29.68,NE,55,1.0,6.0,92,0.00,,,0.10,weatherlink.com 1.10,2013-02-09 02:43:00,
2013-02-08 21:58:00,29.9,28.0,29.69,NE,47,1.0,5.0,92,0.00,,,0.10,weatherlink.com 1.10,2013-02-09 02:58:00,
2013-02-08 22:13:00,29.6,27.0,29.70,NNW,348,3.0,6.0,91,0.00,,,0.10,weatherlink.com 1.10,2013-02-09 03:13:00,
2013-02-08 22:28:00,28.9,27.0,29.70,North,352,4.0,7.0,91,0.00,,,0.10,weatherlink.com 1.10,2013-02-09 03:28:00,
2013-02-08 22:43:00,28.2,26.0,29.71,NNW,337,5.0,7.0,92,0.00,,,0.10,weatherlink.com 1.10,2013-02-09 03:43:00,
2013-02-08 22:58:00,27.7,26.0,29.72,NE,37,2.0,7.0,92,0.00,,,0.10,weatherlink.com 1.10,2013-02-09 03:58:00,
2013-02-08 23:13:00,27.4,26.0,29.73,East,82,1.0,8.0,93,0.00,,,0.10,weatherlink.com 1.10,2013-02-09 04:13:00,
2013-02-08 23:28:00,27.4,26.0,29.74,North,11,2.0,6.0,93,0.00,,,0.10,weatherlink.com 1.10,2013-02-09 04:28:00,
2013-02-08 23:43:00,27.3,26.0,29.75,WNW,302,2.0,7.0,94,0.00,,,0.10,weatherlink.com 1.10,2013-02-09 04:43:00,
2013-02-08 23:58:00,27.1,26.0,29.76,NNE,30,4.0,6.0,94,0.00,,,0.10,weatherlink.com 1.10,2013-02-09 04:58:00,